STARLINK-31969, 59889

Orbit data source: Space-Track

STARLINK-31969, 59889 is a payload satellite owned by SpaceX/Seattle (US) in LEO that was launched on Tue, 28 May 2024 UTC via an FALCON 9 launch vehicle from the Air Force Eastern Test Range (AFETR). Payload-class satellites include a variety of spacecraft equipped with specific instruments for various scientific and technological missions. These include communications satellites like Starlink; space stations such as the ISS; scientific satellites like the Hubble; Earth observation satellites from companies like Planet Labs, Umbra, and HawkEye 360; GPS; miniature CubeSats for education and research; and military/defense satellites.

Loading next visibility...
Identifier
59889, 2024-100E
Orbit
LEO
Last TLE update
11 hours ago
Origin
Manufacturer
SpaceX/Seattle
Mission
Operational spacecraft
Bus & Motor
STARLINK V2M, Unknown motor
Mass
730 kg wet, ~700 kg dry
Launch date (UTC)
2024-05-28 (1 year ago)
Launch vehicle
FALCON 9
Launch site
Air Force Eastern Test Range (AFETR)
Object type
Payload
Rocket body
Debris
Shape & HBR
Unknown
Radar Cross Section
Large (>1 m²)

Expand to show TLE details & history

TLE from 11 hours ago
0 STARLINK-31969
1 59889U 24100E   25179.18225291  .00002610  00000-0  10435-3 0  9995
2 59889  43.0018 119.2305 0001096 272.2315  87.8412 15.27577811 62266
Epoch: 2025-06-28T04:22Z
TLE epoch observation values (Epoch: 2025-06-28T04:22:26.651Z)
Latitude
0.00004°
Longitude
137.09506°
Altitude
482.803 km
Speed
7.626 km/s
True Right ascension
07h 56m 55s
True Declination
0° 00' 00"
Sunlit
Object was in daylight at epoch
Visualization orbit readout
Latitude
35.42103°
Longitude
-176.22479°
Altitude
485.183 km
Speed
7.628 km/s
Apparent Right ascension
12h 55m 02s
Apparent Declination
0° 42' 57"
Sunlit
Object is in daylight
Visualization observer readout
Local Sidereal Time
03:04:07
Azimuth
45.052° ENE
Elevation
-41.032°
Doppler factor
1
Orbital elements
Apogee altitude
485.753 km
Perigee altitude
484.248 km
Semi-major axis
6,863.138 km
Eccentricity
0.00011
Inclination
43.0018°
RAAN
119.2305°
Arg. of periapsis
272.2315°
True anomaly
Unknown
Mean anomaly
87.8412°
Eccentric anomaly
Unknown
Mean motion
3.81732 °/min
Orbital period
94.31 mins
BSTAR
0.00010435
Loading maneuver chart data...
Loading SW <> Apogee altitude chart data...
Loading historical data...
Loading historical data...
Loading historical data...
Loading historical data...
Loading historical data...
Loading historical data...
Loading historical data...

STARLINK-31969 Visibility forecast

Observer location: undefined°, undefined°

Span
Click to sort rows by Start time (UTC) header in descending order
Start Az.
Max El. time (UTC)
Max El. Az.
Max El.
End time (UTC)
End Az.
6 mins2025-06-28 23:24:39.371Z223.775° SW2025-06-28 23:27:39.371Z170.266° S33.906°2025-06-28 23:30:39.371Z85.271° E
5 mins2025-06-29 01:04:39.371Z272.743° WNW2025-06-29 01:06:39.371Z324.255° NNW40.919°2025-06-29 01:09:39.371Z67.81° E
6 mins2025-06-29 02:43:39.371Z293.234° NW2025-06-29 02:45:39.371Z334.078° NNW37.737°2025-06-29 02:49:39.371Z85.951° E
6 mins2025-06-29 04:22:39.371Z279.78° WNW2025-06-29 04:24:39.371Z242.034° WSW38.817°2025-06-29 04:28:39.371Z124.888° SE
|